Total_Precipitation_Accumulation
0.12 0.16 0.44 0.53 0.49 0.50 0.50 0.50 0.52 0.54 0.58 0.65 0.67 0.68 0.68 0.63 0.59 0.58 0.56 0.53 0.53 0.59 0.71 0.81 0.85 0.87 0.83 0.74 0.62 0.55 0.52 0.50 0.47 0.47 0.53 0.58 0.58 0.50 0.45 0.43 0.45 0.48 0.63
0.11 0.16 0.37 0.43 0.46 0.49 0.51 0.54 0.51 0.46 0.52 0.58 0.60 0.61 0.65 0.64 0.60 0.64 0.62 0.61 0.62 0.68 0.75 0.82 0.81 0.79 0.74 0.74 0.67 0.55 0.49 0.45 0.38 0.34 0.33 0.37 0.48 0.50 0.47 0.45 0.44 0.52 0.56
0.08 0.13 0.30 0.40 0.44 0.49 0.51 0.51 0.47 0.43 0.49 0.54 0.56 0.59 0.67 0.68 0.65 0.65 0.63 0.62 0.65 0.73 0.76 0.79 0.79 0.76 0.69 0.69 0.73 0.61 0.53 0.43 0.34 0.30 0.26 0.27 0.43 0.56 0.52 0.50 0.48 0.57 0.57
0.06 0.11 0.21 0.37 0.45 0.50 0.51 0.50 0.48 0.46 0.48 0.53 0.55 0.59 0.64 0.66 0.68 0.67 0.64 0.65 0.69 0.76 0.79 0.80 0.81 0.77 0.72 0.66 0.66 0.61 0.63 0.51 0.34 0.27 0.21 0.25 0.43 0.64 0.63 0.60 0.57 0.61 0.62
0.07 0.11 0.22 0.39 0.48 0.54 0.55 0.52 0.52 0.52 0.53 0.54 0.56 0.62 0.70 0.68 0.68 0.64 0.59 0.60 0.65 0.76 0.83 0.81 0.75 0.70 0.70 0.67 0.63 0.62 0.64 0.56 0.38 0.25 0.19 0.24 0.37 0.67 0.67 0.66 0.64 0.61 0.61
0.09 0.13 0.26 0.43 0.51 0.58 0.60 0.58 0.56 0.58 0.60 0.62 0.65 0.69 0.76 0.75 0.74 0.68 0.62 0.58 0.57 0.64 0.73 0.75 0.71 0.69 0.68 0.63 0.56 0.62 0.70 0.62 0.35 0.24 0.25 0.29 0.36 0.67 0.77 0.76 0.71 0.66 0.65
0.10 0.16 0.29 0.50 0.60 0.63 0.65 0.64 0.62 0.63 0.68 0.70 0.75 0.79 0.82 0.79 0.75 0.70 0.66 0.61 0.57 0.56 0.62 0.68 0.71 0.71 0.68 0.61 0.57 0.65 0.74 0.59 0.31 0.29 0.31 0.33 0.40 0.79 1.06 0.98 0.80 0.71 0.67
0.12 0.20 0.33 0.59 0.70 0.73 0.73 0.73 0.70 0.72 0.76 0.80 0.83 0.87 0.88 0.82 0.75 0.70 0.68 0.62 0.57 0.52 0.51 0.55 0.60 0.62 0.62 0.59 0.59 0.61 0.63 0.44 0.27 0.26 0.29 0.30 0.45 0.89 1.15 1.11 0.94 0.81 0.74
0.22 0.30 0.42 0.61 0.75 0.85 0.85 0.82 0.80 0.79 0.80 0.86 0.91 0.92 0.89 0.82 0.78 0.76 0.70 0.63 0.58 0.55 0.49 0.45 0.47 0.49 0.48 0.49 0.52 0.51 0.45 0.32 0.24 0.29 0.27 0.31 0.46 0.93 1.16 1.19 1.09 0.94 0.80
0.34 0.43 0.53 0.66 0.76 0.86 0.91 0.91 0.88 0.87 0.88 0.91 0.95 0.94 0.88 0.86 0.84 0.78 0.69 0.61 0.60 0.58 0.52 0.47 0.45 0.44 0.41 0.40 0.38 0.36 0.30 0.25 0.19 0.26 0.35 0.35 0.44 0.85 1.12 1.15 1.09 1.03 0.89
0.46 0.54 0.65 0.74 0.83 0.92 0.99 0.99 1.06 1.08 1.10 1.09 1.04 1.01 1.01 0.96 0.90 0.78 0.63 0.60 0.62 0.62 0.54 0.50 0.48 0.46 0.44 0.37 0.31 0.26 0.22 0.18 0.18 0.28 0.33 0.38 0.57 0.98 1.23 1.21 1.18 1.10 0.99
0.50 0.58 0.69 0.80 0.87 0.99 1.08 1.19 1.26 1.23 1.22 1.19 1.03 0.98 1.02 0.91 0.84 0.77 0.69 0.65 0.67 0.66 0.61 0.57 0.54 0.51 0.51 0.42 0.38 0.32 0.22 0.17 0.17 0.19 0.24 0.31 0.58 1.05 1.32 1.31 1.33 1.24 1.11
0.46 0.57 0.69 0.85 0.99 1.06 1.09 1.22 1.27 1.24 1.23 1.23 1.15 1.06 1.03 1.03 0.94 0.88 0.81 0.80 0.77 0.71 0.68 0.66 0.66 0.59 0.56 0.53 0.52 0.43 0.31 0.27 0.23 0.19 0.19 0.25 0.42 0.78 1.16 1.31 1.37 1.40 1.38
0.48 0.62 0.76 0.94 1.07 1.12 1.10 1.19 1.25 1.20 1.16 1.14 1.09 1.11 1.09 1.09 1.01 0.93 0.89 0.87 0.87 0.80 0.74 0.70 0.66 0.61 0.57 0.55 0.53 0.49 0.45 0.42 0.32 0.25 0.19 0.21 0.28 0.41 0.71 1.02 1.29 1.44 1.54
0.54 0.66 0.84 1.02 1.14 1.22 1.21 1.24 1.25 1.18 1.13 1.16 1.12 1.12 1.08 0.97 0.91 0.82 0.79 0.79 0.70 0.64 0.62 0.61 0.61 0.59 0.56 0.54 0.51 0.45 0.44 0.46 0.40 0.34 0.29 0.26 0.26 0.30 0.44 0.66 0.97 1.30 1.54
0.64 0.74 0.91 1.07 1.22 1.34 1.27 1.27 1.22 1.19 1.21 1.28 1.25 1.09 1.05 0.97 0.89 0.82 0.74 0.72 0.66 0.55 0.50 0.48 0.47 0.49 0.51 0.49 0.46 0.40 0.38 0.41 0.41 0.38 0.36 0.36 0.31 0.30 0.36 0.50 0.73 1.05 1.42
0.74 0.88 0.99 1.13 1.32 1.45 1.40 1.36 1.33 1.29 1.25 1.25 1.31 1.31 1.17 1.03 0.94 0.89 0.81 0.74 0.70 0.64 0.58 0.54 0.51 0.48 0.47 0.46 0.45 0.41 0.36 0.34 0.38 0.39 0.40 0.40 0.40 0.38 0.38 0.46 0.60 0.85 1.25
0.89 1.04 1.14 1.29 1.44 1.53 1.55 1.53 1.43 1.38 1.38 1.31 1.30 1.40 1.44 1.26 1.07 0.97 0.88 0.80 0.80 0.80 0.74 0.67 0.59 0.53 0.48 0.45 0.44 0.42 0.38 0.34 0.33 0.35 0.40 0.39 0.38 0.38 0.38 0.42 0.54 0.77 1.06
0.94 1.08 1.21 1.36 1.53 1.67 1.73 1.72 1.67 1.51 1.46 1.44 1.40 1.40 1.48 1.50 1.30 1.10 0.98 0.92 0.92 0.95 0.88 0.78 0.70 0.60 0.54 0.50 0.49 0.47 0.41 0.38 0.36 0.36 0.37 0.39 0.41 0.39 0.39 0.42 0.47 0.60 0.82
0.89 1.07 1.26 1.42 1.60 1.79 1.95 1.95 1.93 1.81 1.61 1.52 1.47 1.38 1.37 1.45 1.48 1.34 1.17 1.08 1.04 1.03 0.97 0.86 0.74 0.67 0.61 0.59 0.59 0.57 0.49 0.43 0.40 0.38 0.36 0.37 0.39 0.40 0.42 0.46 0.49 0.48 0.56
0.88 1.01 1.18 1.33 1.51 1.75 1.89 1.94 1.90 1.84 1.69 1.60 1.54 1.46 1.40 1.41 1.49 1.49 1.32 1.21 1.08 1.01 0.94 0.85 0.81 0.78 0.72 0.69 0.74 0.74 0.64 0.54 0.47 0.43 0.40 0.40 0.40 0.44 0.53 0.59 0.64 0.60 0.54
0.83 0.91 1.08 1.27 1.40 1.61 1.77 1.79 1.88 1.83 1.75 1.66 1.57 1.52 1.47 1.40 1.47 1.57 1.50 1.39 1.27 1.13 1.08 1.04 0.96 0.90 0.87 0.81 0.82 0.89 0.83 0.76 0.61 0.48 0.44 0.42 0.46 0.52 0.63 0.68 0.74 0.75 0.69
0.79 0.88 1.02 1.20 1.36 1.48 1.71 1.96 2.13 2.20 2.02 1.87 1.71 1.56 1.45 1.42 1.40 1.51 1.59 1.55 1.48 1.36 1.21 1.10 1.05 0.97 0.95 0.88 0.83 1.03 1.06 0.82 0.59 0.47 0.41 0.39 0.40 0.42 0.46 0.52 0.59 0.65 0.72
0.77 0.92 1.06 1.13 1.31 1.50 1.63 1.89 2.12 2.20 2.05 1.73 1.63 1.61 1.54 1.46 1.41 1.39 1.48 1.52 1.48 1.42 1.30 1.12 1.01 0.94 0.95 0.95 0.83 0.77 0.80 0.78 0.78 0.60 0.43 0.37 0.36 0.37 0.36 0.37 0.41 0.47 0.59
0.78 0.93 1.07 1.16 1.29 1.53 1.69 1.80 2.07 2.21 2.08 1.88 1.74 1.65 1.57 1.53 1.47 1.36 1.34 1.40 1.44 1.41 1.38 1.27 1.12 1.05 1.00 0.99 0.92 0.79 0.71 0.65 0.66 0.73 0.55 0.41 0.39 0.39 0.38 0.36 0.38 0.40 0.45
0.74 0.86 1.05 1.19 1.24 1.46 1.67 1.82 1.97 2.18 2.25 2.09 1.92 1.80 1.67 1.60 1.52 1.45 1.34 1.33 1.37 1.40 1.40 1.37 1.28 1.17 1.09 0.99 0.92 0.87 0.87 0.86 0.74 0.72 0.66 0.48 0.45 0.43 0.43 0.44 0.44 0.44 0.45